Flag for U.S.A. Weather past 2 weeks in Knoxville, Tennessee, U.S.A.

Now
73 °F

Mostly cloudy.


Feels Like: 70 °F
Forecast: 68 / 79 °F
Wind: 7 mph from Southwest

Location: McGhee Tyson Airport

Current Time: Jul 24, 2014 at 10:00:26 AM

Latest Report: Jul 24, 2014 at 8:53 AM


Visibility: 10 mi

Pressure: 29.95 "Hg

Humidity: 94%

Dew point: 71 °F

Location of KnoxvilleLocation

Historic Weather in Knoxville — Graph

°F

Knoxville temperature yesterday

Maximum temperature yesterday: 83 °F (at 3:53 PM)
Minimum temperature yesterday: 72 °F (at 6:53 AM)
Average temperature yesterday: 77 °F

Past Weeks' High & Low Weather Summary

 TemperatureHumidityPressure
High92 °F (Jul 14, 4:53 PM)100% (Jul 18, 11:59 PM)30.19 "Hg (Jul 18, 11:59 PM)
Low57 °F (Jul 17, 4:53 AM)32% (Jul 11, 4:53 PM)29.81 "Hg (Jul 15, 4:53 PM)
Average75 °F76%30.02 "Hg
* Reported Jul 9 8:53 AM — Jul 24 8:53 AM, Knoxville, Weather by CustomWeather, © 2014

Note: Actual official high and low records may vary slightly from our data, if they occured in-between our weather recording intervals... More about our weather records

Advertising

Knoxville weather history for previous 24 hours

 ConditionsComfort  
Time TempWeatherWind HumidityBarometerVisibility
8:53 AM
Jul 24
73 °FMostly cloudy.7 mph94%29.95 "Hg10 mi
7:53 AM73 °FMostly cloudy.8 mph90%29.93 "Hg10 mi
6:53 AM72 °FMostly cloudy.7 mph91%29.93 "Hg10 mi
5:53 AM73 °FOvercast.No wind88%29.91 "Hg10 mi
4:53 AM72 °FPartly cloudy.6 mph91%29.91 "Hg10 mi
3:53 AM73 °FMostly cloudy.3 mph88%29.91 "Hg10 mi
2:53 AM73 °FMostly cloudy.3 mph88%29.92 "Hg10 mi
1:53 AM73 °FOvercast.5 mph90%29.93 "Hg10 mi
12:53 AM73 °FMostly cloudy.No wind90%29.96 "Hg10 mi
11:53 PM
Jul 23
72 °FPartly cloudy.5 mph93%29.97 "Hg10 mi
10:53 PM75 °FPartly cloudy.5 mph88%29.96 "Hg10 mi
9:53 PM76 °FPartly cloudy.5 mph80%29.96 "Hg10 mi
8:53 PM77 °FBroken clouds.3 mph77%29.94 "Hg10 mi
7:53 PM78 °FBroken clouds.7 mph74%29.93 "Hg10 mi
6:53 PM78 °FBroken clouds.7 mph71%29.96 "Hg10 mi
5:53 PM81 °FBroken clouds.7 mph65%29.96 "Hg10 mi
4:53 PM80 °FBroken clouds.8 mph67%29.98 "Hg10 mi
3:53 PM83 °FPartly sunny.14 mph68%30.01 "Hg10 mi
2:53 PM82 °FBroken clouds.7 mph72%30.01 "Hg10 mi
1:53 PM80 °FThundershowers. Broken clouds.7 mph76%30.03 "Hg10 mi
12:53 PM78 °FBroken clouds.7 mph82%30.06 "Hg10 mi
11:53 AM78 °FLight rain. Broken clouds.No wind76%30.08 "Hg10 mi
10:53 AM77 °FBroken clouds.6 mph79%30.08 "Hg10 mi
Weather by CustomWeather, © 2014

See weather overviewHow to use our weather pages